Tacoma Narrows, WA
on Sunday, January 27, 2013

Sunday
Previous Day Next Day
Daily Summary
 ActualAverageRecord
Temperature
Mean Temperature °F °F  
Max Temperature 41°F 46°F 51°F (2003)
Min Temperature 39°F 38°F 28°F (2012)
Degree Days
Heating Degree Days 25    
Moisture
Dew Point 36°F   
Average Humidity 86    
Maximum Humidity 93    
Minimum Humidity 81    
Precipitation
Precipitation 0.03 in in in ()
Wind
Wind Speed 9 mph   
Max Wind Speed 15 mph   
Max Gust Speed 23 mph   
Visibility 10 miles   
Events Rain   
Averages and records for this station are not official NWS values.
Key: T is trace of precipitation, MM is missing value
Source: NWS Daily Summary
Seasonal Weather Averages
Time(PST)TemperatureDew PointHumidity Pressure Visibility Wind DirectionWind SpeedGust SpeedPrecipitationEvents Conditions
12:45 AM 41.0°F 37.4°F 87% 30.04 in 10.0 miles SSW 8.1 mph - N/A   Overcast
12:53 AM 41.0°F 37.4°F 87% 30.04 in 10.0 miles SSW 9.2 mph - N/A   Overcast
1:53 AM 41.0°F 37.0°F 86% 30.04 in 10.0 miles SSW 8.1 mph - N/A   Overcast
2:53 AM 41.0°F 37.0°F 86% 30.05 in 10.0 miles SSW 6.9 mph - N/A   Overcast
3:11 AM 41.0°F 37.4°F 87% 30.04 in 10.0 miles SSW 6.9 mph - N/A   Overcast
3:21 AM 39.2°F 37.4°F 93% 30.04 in 8.0 miles SSW 5.8 mph - N/A   Overcast
3:53 AM 41.0°F 37.0°F 86% 30.04 in 10.0 miles SSW 6.9 mph - N/A   Overcast
4:12 AM 39.2°F 37.4°F 93% 30.03 in 10.0 miles SSW 4.6 mph - N/A   Overcast
4:53 AM 41.0°F 37.0°F 86% 30.05 in 10.0 miles SW 3.5 mph - N/A   Overcast
5:53 AM 41.0°F 36.0°F 82% 30.05 in 10.0 miles SW 6.9 mph - N/A   Overcast
6:53 AM 39.9°F 36.0°F 86% 30.05 in 10.0 miles South 6.9 mph - N/A   Overcast
7:53 AM 39.9°F 36.0°F 86% 30.06 in 10.0 miles South 6.9 mph - N/A   Overcast
8:35 AM 39.2°F 35.6°F 87% 30.06 in 10.0 miles SSW 6.9 mph - N/A   Mostly Cloudy
8:53 AM 39.9°F 36.0°F 86% 30.07 in 10.0 miles South 9.2 mph - N/A   Mostly Cloudy
9:04 AM 41.0°F 35.6°F 81% 30.06 in 10.0 miles South 10.4 mph - N/A   Overcast
9:53 AM 41.0°F 36.0°F 82% 30.07 in 10.0 miles South 12.7 mph - 0.00 in Rain Light Rain
10:53 AM 41.0°F 37.0°F 86% 30.08 in 10.0 miles South 13.8 mph 18.4 mph 0.01 in Rain Light Rain
11:53 AM 41.0°F 36.0°F 82% 30.06 in 10.0 miles South 15.0 mph 21.9 mph 0.00 in   Overcast
12:53 PM 39.9°F 36.0°F 86% 30.04 in 10.0 miles South 15.0 mph - 0.00 in   Overcast
1:53 PM 39.9°F 36.0°F 86% 30.02 in 10.0 miles South 11.5 mph 23.0 mph 0.01 in Rain Light Rain
2:53 PM 41.0°F 37.0°F 86% 30.02 in 10.0 miles South 12.7 mph - 0.01 in Rain Light Rain
3:53 PM 39.9°F 36.0°F 86% 30.02 in 10.0 miles South 13.8 mph 23.0 mph 0.00 in   Overcast
4:53 PM 39.9°F 36.0°F 86% 30.01 in 10.0 miles South 15.0 mph 21.9 mph N/A   Overcast
5:53 PM 39.9°F 36.0°F 86% 30.00 in 10.0 miles South 13.8 mph - N/A   Overcast
6:53 PM 39.9°F 36.0°F 86% 30.01 in 10.0 miles South 13.8 mph 20.7 mph N/A   Overcast
7:53 PM 39.9°F 36.0°F 86% 30.02 in 10.0 miles South 11.5 mph - N/A   Overcast
8:00 PM 39.2°F 35.6°F 87% 30.01 in 10.0 miles South 11.5 mph 19.6 mph N/A   Overcast
8:14 PM 39.2°F 35.6°F 87% 30.01 in 10.0 miles South 12.7 mph - N/A   Overcast
8:51 PM 39.2°F 35.6°F 87% 30.00 in 10.0 miles South 10.4 mph - N/A   Overcast
8:53 PM 39.9°F 36.0°F 86% 30.01 in 10.0 miles South 10.4 mph - N/A   Overcast
9:44 PM 39.2°F 35.6°F 87% 30.00 in 10.0 miles SSW 10.4 mph - N/A   Overcast
9:53 PM 39.9°F 36.0°F 86% 30.01 in 10.0 miles South 10.4 mph - N/A   Overcast
10:15 PM 39.2°F 35.6°F 87% 30.00 in 10.0 miles South 9.2 mph - N/A   Overcast
10:53 PM 39.9°F 36.0°F 86% 30.01 in 10.0 miles South 8.1 mph 17.3 mph N/A   Overcast
11:53 PM 39.9°F 36.0°F 86% 30.01 in 10.0 miles SSW 8.1 mph - N/A   Overcast
Moon Phase
Jan. 27 Feb. 03 Feb. 10 Feb. 17 Feb. 25
Sunrise:07:41 AM (PST) Moon Rise:06:12 PM (PST)1/27
Sunset:05:05 PM (PST) Moon Set:07:31 AM (PST)1/27

Copyright © 2014 The Weather Underground, Inc.